Overview Statistics Trail Chart Weather Telemetry Raw packets
 

This is the latest recevied weather packets stored in our database for station/object WD7OO. If no packets are shown the sender has not sent any weather packets the latest 10 day(s).

<< 82 83 84 85 86 87 88 >>
Time Temp. Humidity Pressure Rain* Wind** Luminosity Snow
1788027190 26.67° C 62% 1021.9 hPa 0 mm - 356 W/m² -
1788026889 27.22° C 61% 1022 hPa 0 mm - 390 W/m² -
1788026584 27.22° C 62% 1022.1 hPa 0 mm - 495 W/m² -
1788026279 27.22° C 65% 1022.1 hPa 0 mm - 579 W/m² -
1788025975 27.22° C 62% 1022 hPa 0 mm - 616 W/m² -
1788025673 27.22° C 62% 1022.1 hPa 0 mm - 675 W/m² -
1788025373 27.22° C 63% 1022.2 hPa 0 mm - 628 W/m² -
1788025068 26.67° C 66% 1022.2 hPa 0 mm - 641 W/m² -
1788024763 26.11° C 65% 1022.5 hPa 0 mm - 483 W/m² -
1788024459 26.11° C 66% 1022.5 hPa 0 mm - 459 W/m² -
1788024158 26.11° C 64% 1022.5 hPa 0 mm - 407 W/m² -
1788023854 26.11° C 66% 1022.4 hPa 0 mm - 403 W/m² -
1788023549 26.67° C 66% 1022.6 hPa 0 mm - 409 W/m² -
1788023245 26.67° C 67% 1022.4 hPa 0 mm - 401 W/m² -
1788022944 26.67° C 68% 1022.5 hPa 0 mm - 404 W/m² -
1788022642 26.11° C 68% 1022.9 hPa 0 mm - 445 W/m² -
1788022336 26.67° C 68% 1022.7 hPa 0 mm - 474 W/m² -
1788022035 26.67° C 66% 1022.7 hPa 0 mm - 458 W/m² -
1788021730 26.67° C 71% 1022.7 hPa 0 mm - 436 W/m² -
1788021428 26.11° C 70% 1022.7 hPa 0 mm - 448 W/m² -
1788021123 26.11° C 67% 1023.1 hPa 0 mm - 429 W/m² -
1788020818 26.11° C 66% 1023 hPa 0 mm - 487 W/m² -
1788020513 25.56° C 69% 1023.1 hPa 0 mm - 460 W/m² -
1788020209 25.56° C 69% 1023.2 hPa 0 mm - 392 W/m² -
1788019904 26.11° C 65% 1022.9 hPa 0 mm - 344 W/m² -

* Rain latest hour (hover to see other rain measurements)
** Current wind speed in m/s (hover to see current wind gust speed)